When you browse on this site, cookies collect data to enhance your experience and personalize the content and advertising you see.
Visit our Privacy Policy to learn more. By continuing to use the site, you agree to this use of cookies and data.
  • In Belgien
  • Länderverzeichnis
  • Für 7 Tage
  • Wassertemperatur
  • Satellitenkarten
  • Wetterkarte
  • Widgets
  • user-avatar
    Anmelden

    Stündliche Wetter Andenne

    Heute, 20 Februar, Mittwoch

    Zeit Temperatur Niederschläge Wind Luftdruck Luftfeuchtigkeit
    00:00 +4°C° 0 mm 2 m/S 756 mmHg 89%
    01:00 +4°C° 0 mm 2 m/S 756 mmHg 90%
    02:00 +4°C° 0 mm 2 m/S 756 mmHg 91%
    03:00 +3°C° 0 mm 2 m/S 756 mmHg 92%
    04:00 +3°C° 0 mm 2 m/S 756 mmHg 92%
    05:00 +2°C° 0 mm 3 m/S 756 mmHg 93%
    06:00 +2°C° 0 mm 3 m/S 756 mmHg 94%
    07:00 +3°C° 0 mm 3 m/S 756 mmHg 91%
    08:00 +4°C° 0 mm 3 m/S 756 mmHg 87%
    09:00 +5°C° 0 mm 4 m/S 757 mmHg 84%
    10:00 +7°C° 0 mm 4 m/S 757 mmHg 78%
    11:00 +8°C° 0 mm 4 m/S 757 mmHg 71%
    12:00 +10°C° 0 mm 4 m/S 757 mmHg 65%
    13:00 +11°C° 0 mm 4 m/S 757 mmHg 64%
    14:00 +11°C° 0 mm 3 m/S 757 mmHg 63%
    15:00 +11°C° 0 mm 3 m/S 757 mmHg 62%
    16:00 +10°C° 0 mm 3 m/S 757 mmHg 69%
    17:00 +8°C° 0 mm 2 m/S 757 mmHg 77%
    18:00 +7°C° 0 mm 2 m/S 757 mmHg 84%
    19:00 +6°C° 0 mm 2 m/S 757 mmHg 86%
    20:00 +6°C° 0 mm 2 m/S 758 mmHg 88%
    21:00 +6°C° 0 mm 2 m/S 758 mmHg 90%
    22:00 +5°C° 0 mm 2 m/S 758 mmHg 91%
    23:00 +5°C° 0 mm 2 m/S 758 mmHg 91%

    Morgen, 21 Februar, Donnerstag

    Zeit Temperatur Niederschläge Wind Luftdruck Luftfeuchtigkeit
    00:00 +5°C° 0 mm 2 m/S 758 mmHg 92%
    01:00 +5°C° 0 mm 2 m/S 759 mmHg 92%
    02:00 +5°C° 0 mm 2 m/S 759 mmHg 93%
    03:00 +5°C° 0 mm 2 m/S 759 mmHg 93%
    04:00 +5°C° 0 mm 2 m/S 759 mmHg 93%
    05:00 +5°C° 0 mm 2 m/S 759 mmHg 93%
    06:00 +5°C° 0 mm 2 m/S 759 mmHg 93%
    07:00 +6°C° 0 mm 2 m/S 759 mmHg 90%
    08:00 +7°C° 0 mm 2 m/S 760 mmHg 88%
    09:00 +8°C° 0 mm 3 m/S 760 mmHg 85%
    10:00 +10°C° 0 mm 3 m/S 760 mmHg 79%
    11:00 +11°C° 0 mm 3 m/S 760 mmHg 72%
    12:00 +12°C° 0 mm 3 m/S 760 mmHg 66%
    13:00 +12°C° 0 mm 3 m/S 760 mmHg 66%
    14:00 +12°C° 0 mm 3 m/S 760 mmHg 66%
    15:00 +14°C° 0 mm 2 m/S 760 mmHg 66%
    16:00 +12°C° 0 mm 2 m/S 760 mmHg 71%
    17:00 +11°C° 0 mm 1 m/S 761 mmHg 76%
    18:00 +10°C° 0 mm 1 m/S 761 mmHg 81%
    19:00 +9°C° 0 mm 1 m/S 762 mmHg 83%
    20:00 +9°C° 0 mm 1 m/S 762 mmHg 85%
    21:00 +8°C° 0 mm 1 m/S 762 mmHg 87%
    22:00 +8°C° 0 mm 1 m/S 762 mmHg 88%
    23:00 +8°C° 0 mm 1 m/S 763 mmHg 89%

    übermorgen, 22 Februar, Freitag

    Zeit Temperatur Niederschläge Wind Luftdruck Luftfeuchtigkeit
    00:00 +8°C° 0 mm 1 m/S 763 mmHg 90%
    01:00 +7°C° 0 mm 1 m/S 763 mmHg 91%
    02:00 +7°C° 0 mm 1 m/S 763 mmHg 91%
    03:00 +7°C° 0 mm 1 m/S 763 mmHg 91%
    04:00 +7°C° 0 mm 1 m/S 764 mmHg 92%
    05:00 +6°C° 0 mm 1 m/S 764 mmHg 92%
    06:00 +5°C° 0 mm 0 m/S 764 mmHg 92%
    07:00 +7°C° 0 mm 0 m/S 764 mmHg 88%
    08:00 +8°C° 0 mm 0 m/S 765 mmHg 85%
    09:00 +9°C° 0 mm 0 m/S 765 mmHg 81%
    10:00 +11°C° 0 mm 1 m/S 765 mmHg 77%
    11:00 +13°C° 0 mm 1 m/S 765 mmHg 72%
    12:00 +14°C° 0 mm 1 m/S 765 mmHg 67%
    13:00 +14°C° 0 mm 2 m/S 765 mmHg 68%
    14:00 +15°C° 0 mm 2 m/S 765 mmHg 68%
    15:00 +15°C° 0 mm 2 m/S 765 mmHg 69%
    16:00 +13°C° 0 mm 2 m/S 765 mmHg 75%
    17:00 +12°C° 0 mm 2 m/S 765 mmHg 82%
    18:00 +9°C° 0 mm 2 m/S 765 mmHg 88%
    19:00 +9°C° 0 mm 2 m/S 765 mmHg 90%
    20:00 +8°C° 0 mm 2 m/S 765 mmHg 92%
    21:00 +8°C° 0 mm 2 m/S 765 mmHg 93%
    22:00 +8°C° 0 mm 2 m/S 765 mmHg 93%
    23:00 +8°C° 0 mm 2 m/S 765 mmHg 93%

    23 Februar, Samstag

    Zeit Temperatur Niederschläge Wind Luftdruck Luftfeuchtigkeit
    00:00 +8°C° 0 mm 1 m/S 765 mmHg 93%
    01:00 +8°C° 0 mm 1 m/S 765 mmHg 93%
    02:00 +8°C° 0 mm 1 m/S 765 mmHg 93%
    03:00 +7°C° 0 mm 1 m/S 765 mmHg 93%
    04:00 +6°C° 0 mm 2 m/S 765 mmHg 93%
    05:00 +6°C° 0 mm 2 m/S 765 mmHg 93%
    06:00 +5°C° 0 mm 2 m/S 765 mmHg 93%
    07:00 +6°C° 0 mm 2 m/S 765 mmHg 87%
    08:00 +7°C° 0 mm 2 m/S 765 mmHg 82%
    09:00 +8°C° 0 mm 2 m/S 765 mmHg 77%
    10:00 +10°C° 0 mm 3 m/S 765 mmHg 69%
    11:00 +11°C° 0 mm 3 m/S 765 mmHg 62%
    12:00 +13°C° 0 mm 3 m/S 764 mmHg 55%
    13:00 +13°C° 0 mm 3 m/S 764 mmHg 54%
    14:00 +13°C° 0 mm 3 m/S 764 mmHg 53%
    15:00 +13°C° 0 mm 3 m/S 764 mmHg 52%
    16:00 +11°C° 0 mm 3 m/S 764 mmHg 55%
    17:00 +9°C° 0 mm 3 m/S 764 mmHg 58%
    18:00 +7°C° 0 mm 3 m/S 764 mmHg 62%
    19:00 +6°C° 0 mm 2 m/S 764 mmHg 62%
    20:00 +6°C° 0 mm 2 m/S 764 mmHg 62%
    21:00 +5°C° 0 mm 2 m/S 764 mmHg 62%
    22:00 +4°C° 0 mm 2 m/S 764 mmHg 63%
    23:00 +4°C° 0 mm 2 m/S 764 mmHg 63%

    24 Februar, Sonntag

    Zeit Temperatur Niederschläge Wind Luftdruck Luftfeuchtigkeit
    00:00 +4°C° 0 mm 2 m/S 764 mmHg 64%
    01:00 +4°C° 0 mm 1 m/S 764 mmHg 63%
    02:00 +4°C° 0 mm 1 m/S 764 mmHg 62%
    03:00 +3°C° 0 mm 0 m/S 764 mmHg 61%
    04:00 +3°C° 0 mm 1 m/S 764 mmHg 60%
    05:00 +3°C° 0 mm 1 m/S 764 mmHg 59%
    06:00 +3°C° 0 mm 1 m/S 764 mmHg 57%
    07:00 +4°C° 0 mm 1 m/S 764 mmHg 53%
    08:00 +6°C° 0 mm 1 m/S 765 mmHg 48%
    09:00 +7°C° 0 mm 1 m/S 765 mmHg 44%
    10:00 +9°C° 0 mm 1 m/S 765 mmHg 41%
    11:00 +11°C° 0 mm 1 m/S 765 mmHg 38%
    12:00 +13°C° 0 mm 2 m/S 765 mmHg 34%
    13:00 +13°C° 0 mm 2 m/S 765 mmHg 37%
    14:00 +14°C° 0 mm 2 m/S 764 mmHg 40%
    15:00 +14°C° 0 mm 2 m/S 764 mmHg 43%
    16:00 +12°C° 0 mm 2 m/S 764 mmHg 48%
    17:00 +9°C° 0 mm 2 m/S 764 mmHg 53%
    18:00 +7°C° 0 mm 2 m/S 765 mmHg 58%
    19:00 +7°C° 0 mm 2 m/S 765 mmHg 58%
    20:00 +6°C° 0 mm 2 m/S 765 mmHg 57%
    21:00 +5°C° 0 mm 2 m/S 765 mmHg 57%
    22:00 +6°C° 0 mm 1 m/S 765 mmHg 56%
    23:00 +6°C° 0 mm 1 m/S 765 mmHg 56%

    25 Februar, Montag

    Zeit Temperatur Niederschläge Wind Luftdruck Luftfeuchtigkeit
    00:00 +5°C° 0 mm 1 m/S 765 mmHg 55%
    01:00 +5°C° 0 mm 1 m/S 765 mmHg 55%
    02:00 +5°C° 0 mm 1 m/S 765 mmHg 56%
    03:00 +5°C° 0 mm 1 m/S 765 mmHg 56%
    04:00 +5°C° 0 mm 1 m/S 766 mmHg 55%
    05:00 +5°C° 0 mm 1 m/S 766 mmHg 55%
    06:00 +6°C° 0 mm 1 m/S 766 mmHg 54%
    07:00 +7°C° 0 mm 1 m/S 766 mmHg 54%
    08:00 +7°C° 0 mm 2 m/S 766 mmHg 54%
    09:00 +8°C° 0 mm 2 m/S 766 mmHg 55%
    10:00 +10°C° 0 mm 3 m/S 766 mmHg 52%
    11:00 +12°C° 0 mm 3 m/S 766 mmHg 50%
    12:00 +13°C° 0 mm 4 m/S 766 mmHg 48%
    13:00 +14°C° 0 mm 3 m/S 766 mmHg 50%
    14:00 +14°C° 0 mm 3 m/S 765 mmHg 52%
    15:00 +16°C° 0 mm 3 m/S 765 mmHg 54%
    16:00 +13°C° 0 mm 3 m/S 765 mmHg 60%
    17:00 +11°C° 0 mm 3 m/S 765 mmHg 66%
    18:00 +9°C° 0 mm 3 m/S 766 mmHg 72%
    19:00 +8°C° 0 mm 3 m/S 766 mmHg 74%
    20:00 +7°C° 0 mm 3 m/S 766 mmHg 75%
    21:00 +7°C° 0 mm 2 m/S 766 mmHg 76%
    22:00 +7°C° 0 mm 2 m/S 766 mmHg 77%
    23:00 +6°C° 0 mm 2 m/S 766 mmHg 78%
    Mehr zeigen